• en France
  • Liste des pays
  • À 7 jours
  • Température de l'eau
  • Carte satellitaire
  • Carte météo
  • Widgets météo
  • user-avatar
    Se connecter

    Météo par heure à Sankt Pölten

    Ce jour, 23 Octobre, Mardi

    Heure Température Précipitation Vent Pression Humidité
    00:00 +8°C° 0 mm 2 m/s 744 mmHg 84%
    01:00 +8°C° 0 mm 2 m/s 743 mmHg 88%
    02:00 +8°C° 0 mm 2 m/s 743 mmHg 88%
    03:00 +8°C° 0 mm 2 m/s 743 mmHg 88%
    04:00 +8°C° 0 mm 2 m/s 743 mmHg 88%
    05:00 +7°C° 0 mm 2 m/s 743 mmHg 88%
    06:00 +7°C° 0 mm 2 m/s 743 mmHg 89%
    07:00 +7°C° 0 mm 3 m/s 743 mmHg 89%
    08:00 +7°C° 0 mm 4 m/s 742 mmHg 82%
    09:00 +10°C° 0 mm 4 m/s 741 mmHg 75%
    10:00 +12°C° 0 mm 5 m/s 741 mmHg 67%
    11:00 +11°C° 0 mm 6 m/s 740 mmHg 63%
    12:00 +13°C° 0 mm 6 m/s 739 mmHg 59%
    13:00 +14°C° 0 mm 7 m/s 738 mmHg 55%
    14:00 +12°C° 0.1 mm 7 m/s 738 mmHg 58%
    15:00 +11°C° 0.1 mm 7 m/s 737 mmHg 60%
    16:00 +11°C° 0.1 mm 7 m/s 737 mmHg 63%
    17:00 +10°C° 0.3 mm 7 m/s 737 mmHg 68%
    18:00 +9°C° 0.3 mm 8 m/s 737 mmHg 74%
    19:00 +9°C° 0.3 mm 8 m/s 736 mmHg 79%
    20:00 +9°C° 0.1 mm 8 m/s 736 mmHg 79%
    21:00 +9°C° 0.1 mm 8 m/s 736 mmHg 79%
    22:00 +9°C° 0.1 mm 8 m/s 735 mmHg 79%
    23:00 +10°C° 0.1 mm 9 m/s 735 mmHg 79%

    Demain, 24 Octobre, Mercredi

    Heure Température Précipitation Vent Pression Humidité
    00:00 +10°C° 0.1 mm 9 m/s 734 mmHg 79%
    01:00 +10°C° 0.1 mm 9 m/s 734 mmHg 79%
    02:00 +10°C° 0.2 mm 9 m/s 733 mmHg 79%
    03:00 +9°C° 0.2 mm 10 m/s 732 mmHg 79%
    04:00 +11°C° 0.2 mm 10 m/s 732 mmHg 79%
    05:00 +11°C° 0.5 mm 10 m/s 731 mmHg 80%
    06:00 +11°C° 0.5 mm 10 m/s 731 mmHg 80%
    07:00 +11°C° 0.5 mm 10 m/s 731 mmHg 81%
    08:00 +11°C° 1.2 mm 10 m/s 731 mmHg 82%
    09:00 +11°C° 1.2 mm 9 m/s 732 mmHg 84%
    10:00 +11°C° 1.2 mm 9 m/s 732 mmHg 85%
    11:00 +11°C° 1.9 mm 8 m/s 732 mmHg 86%
    12:00 +11°C° 1.9 mm 8 m/s 733 mmHg 86%
    13:00 +10°C° 1.9 mm 8 m/s 733 mmHg 86%
    14:00 +10°C° 1.1 mm 7 m/s 733 mmHg 85%
    15:00 +10°C° 1.1 mm 7 m/s 734 mmHg 83%
    16:00 +10°C° 1.1 mm 6 m/s 734 mmHg 82%
    17:00 +9°C° 0.5 mm 6 m/s 735 mmHg 82%
    18:00 +9°C° 0.5 mm 5 m/s 736 mmHg 83%
    19:00 +8°C° 0.5 mm 4 m/s 736 mmHg 83%
    20:00 +8°C° 0.1 mm 4 m/s 737 mmHg 84%
    21:00 +8°C° 0.1 mm 3 m/s 737 mmHg 85%
    22:00 +8°C° 0.1 mm 3 m/s 738 mmHg 86%
    23:00 +8°C° 0.2 mm 3 m/s 738 mmHg 87%

    Après-demain, 25 Octobre, Jeudi

    Heure Température Précipitation Vent Pression Humidité
    00:00 +8°C° 0.2 mm 3 m/s 738 mmHg 87%
    01:00 +8°C° 0.2 mm 3 m/s 738 mmHg 88%
    02:00 +9°C° 0.3 mm 3 m/s 738 mmHg 89%
    03:00 +9°C° 0.3 mm 3 m/s 737 mmHg 90%
    04:00 +10°C° 0.3 mm 3 m/s 737 mmHg 90%
    05:00 +10°C° 0.1 mm 4 m/s 737 mmHg 90%
    06:00 +11°C° 0.1 mm 4 m/s 737 mmHg 90%
    07:00 +11°C° 0.1 mm 4 m/s 736 mmHg 89%
    08:00 +12°C° 0.1 mm 5 m/s 736 mmHg 87%
    09:00 +12°C° 0.1 mm 5 m/s 736 mmHg 85%
    10:00 +13°C° 0.1 mm 6 m/s 736 mmHg 82%
    11:00 +13°C° 0.1 mm 6 m/s 736 mmHg 80%
    12:00 +13°C° 0.1 mm 6 m/s 735 mmHg 78%
    13:00 +13°C° 0.1 mm 6 m/s 735 mmHg 76%
    14:00 +13°C° 0 mm 6 m/s 735 mmHg 77%
    15:00 +13°C° 0 mm 5 m/s 735 mmHg 78%
    16:00 +13°C° 0 mm 5 m/s 734 mmHg 79%
    17:00 +12°C° 0 mm 4 m/s 735 mmHg 82%
    18:00 +11°C° 0 mm 4 m/s 735 mmHg 84%
    19:00 +11°C° 0 mm 3 m/s 735 mmHg 87%
    20:00 +10°C° 0 mm 3 m/s 735 mmHg 88%
    21:00 +10°C° 0 mm 3 m/s 735 mmHg 89%
    22:00 +10°C° 0 mm 3 m/s 735 mmHg 89%
    23:00 +10°C° 0 mm 2 m/s 735 mmHg 90%

    26 Octobre, Vendredi

    Heure Température Précipitation Vent Pression Humidité
    00:00 +9°C° 0 mm 2 m/s 735 mmHg 90%
    01:00 +9°C° 0 mm 2 m/s 735 mmHg 91%
    02:00 +9°C° 0 mm 2 m/s 735 mmHg 92%
    03:00 +8°C° 0 mm 2 m/s 735 mmHg 92%
    04:00 +8°C° 0 mm 2 m/s 734 mmHg 93%
    05:00 +9°C° 0 mm 1 m/s 734 mmHg 93%
    06:00 +9°C° 0 mm 1 m/s 734 mmHg 93%
    07:00 +8°C° 0 mm 1 m/s 734 mmHg 93%
    08:00 +10°C° 0 mm 1 m/s 734 mmHg 86%
    09:00 +12°C° 0 mm 1 m/s 734 mmHg 79%
    10:00 +14°C° 0 mm 1 m/s 733 mmHg 71%
    11:00 +15°C° 0 mm 1 m/s 733 mmHg 68%
    12:00 +16°C° 0 mm 1 m/s 732 mmHg 65%
    13:00 +18°C° 0 mm 1 m/s 732 mmHg 61%
    14:00 +16°C° 0 mm 1 m/s 731 mmHg 65%
    15:00 +15°C° 0 mm 1 m/s 731 mmHg 70%
    16:00 +15°C° 0 mm 1 m/s 730 mmHg 74%
    17:00 +13°C° 0 mm 1 m/s 730 mmHg 79%
    18:00 +12°C° 0 mm 1 m/s 730 mmHg 84%
    19:00 +11°C° 0 mm 1 m/s 730 mmHg 89%
    20:00 +11°C° 0 mm 1 m/s 730 mmHg 90%
    21:00 +10°C° 0 mm 1 m/s 730 mmHg 90%
    22:00 +10°C° 0 mm 1 m/s 730 mmHg 91%
    23:00 +10°C° 0 mm 1 m/s 730 mmHg 90%

    27 Octobre, Samedi

    Heure Température Précipitation Vent Pression Humidité
    00:00 +10°C° 0 mm 1 m/s 730 mmHg 90%
    01:00 +10°C° 0 mm 1 m/s 730 mmHg 90%
    02:00 +10°C° 0 mm 1 m/s 730 mmHg 89%
    03:00 +10°C° 0 mm 1 m/s 729 mmHg 89%
    04:00 +10°C° 0 mm 1 m/s 729 mmHg 89%
    05:00 +10°C° 0 mm 1 m/s 729 mmHg 89%
    06:00 +10°C° 0 mm 1 m/s 729 mmHg 89%
    07:00 +10°C° 0 mm 1 m/s 729 mmHg 89%
    08:00 +10°C° 0.3 mm 1 m/s 729 mmHg 86%
    09:00 +11°C° 0.3 mm 1 m/s 729 mmHg 84%
    10:00 +11°C° 0.3 mm 1 m/s 729 mmHg 82%
    11:00 +11°C° 0.5 mm 1 m/s 729 mmHg 83%
    12:00 +11°C° 0.5 mm 1 m/s 729 mmHg 85%
    13:00 +11°C° 0.5 mm 1 m/s 728 mmHg 87%
    14:00 +10°C° 1.1 mm 1 m/s 728 mmHg 89%
    15:00 +10°C° 1.1 mm 1 m/s 728 mmHg 91%
    16:00 +9°C° 1.1 mm 1 m/s 728 mmHg 93%
    17:00 +9°C° 1 mm 1 m/s 728 mmHg 94%
    18:00 +9°C° 1 mm 1 m/s 728 mmHg 95%
    19:00 +8°C° 1 mm 1 m/s 728 mmHg 95%
    20:00 +7°C° 0.7 mm 2 m/s 728 mmHg 95%
    21:00 +7°C° 0.7 mm 2 m/s 728 mmHg 95%
    22:00 +7°C° 0.7 mm 2 m/s 728 mmHg 95%
    23:00 +7°C° 0.5 mm 2 m/s 727 mmHg 94%

    28 Octobre, Dimanche

    Heure Température Précipitation Vent Pression Humidité
    00:00 +7°C° 0.5 mm 3 m/s 727 mmHg 93%
    01:00 +7°C° 0.5 mm 3 m/s 726 mmHg 92%
    02:00 +7°C° 0.5 mm 3 m/s 726 mmHg 93%
    03:00 +7°C° 0.5 mm 3 m/s 725 mmHg 93%
    04:00 +7°C° 0.5 mm 3 m/s 724 mmHg 93%
    05:00 +7°C° 0.5 mm 3 m/s 724 mmHg 93%
    06:00 +5°C° 0.5 mm 3 m/s 724 mmHg 93%
    07:00 +5°C° 0.5 mm 3 m/s 724 mmHg 93%
    08:00 +5°C° 0.4 mm 3 m/s 724 mmHg 93%
    09:00 +5°C° 0.4 mm 3 m/s 724 mmHg 94%
    10:00 +5°C° 0.4 mm 3 m/s 724 mmHg 94%
    11:00 +7°C° 0.6 mm 3 m/s 723 mmHg 94%
    12:00 +7°C° 0.6 mm 3 m/s 723 mmHg 93%
    13:00 +7°C° 0.6 mm 3 m/s 723 mmHg 93%
    14:00 +7°C° 1.4 mm 2 m/s 722 mmHg 94%
    15:00 +7°C° 1.4 mm 2 m/s 722 mmHg 94%
    16:00 +6°C° 1.4 mm 2 m/s 722 mmHg 95%
    17:00 +6°C° 3.4 mm 2 m/s 722 mmHg 95%
    18:00 +6°C° 3.4 mm 2 m/s 721 mmHg 95%
    19:00 +6°C° 3.4 mm 2 m/s 721 mmHg 95%
    20:00 +6°C° 2.5 mm 2 m/s 721 mmHg 95%
    21:00 +6°C° 2.5 mm 2 m/s 721 mmHg 95%
    22:00 +6°C° 2.5 mm 2 m/s 721 mmHg 95%
    23:00 +5°C° 1.3 mm 2 m/s 720 mmHg 95%

    29 Octobre, Lundi

    Heure Température Précipitation Vent Pression Humidité
    00:00 +5°C° 1.3 mm 2 m/s 720 mmHg 95%
    01:00 +5°C° 1.3 mm 2 m/s 720 mmHg 94%
    02:00 +5°C° 0.9 mm 2 m/s 719 mmHg 94%
    03:00 +5°C° 0.9 mm 2 m/s 719 mmHg 94%
    04:00 +5°C° 0.9 mm 2 m/s 719 mmHg 94%
    05:00 +5°C° 0.8 mm 2 m/s 719 mmHg 94%
    06:00 +5°C° 0.8 mm 2 m/s 719 mmHg 94%
    07:00 +5°C° 0.8 mm 2 m/s 719 mmHg 94%
    08:00 +5°C° 0.3 mm 2 m/s 719 mmHg 92%
    09:00 +5°C° 0.3 mm 2 m/s 719 mmHg 91%
    10:00 +6°C° 0.3 mm 2 m/s 719 mmHg 90%
    11:00 +6°C° 0.2 mm 2 m/s 719 mmHg 89%
    12:00 +5°C° 0.2 mm 3 m/s 719 mmHg 89%
    13:00 +5°C° 0.2 mm 3 m/s 719 mmHg 88%
    14:00 +5°C° 0.9 mm 3 m/s 719 mmHg 89%
    15:00 +4°C° 0.9 mm 3 m/s 719 mmHg 90%
    16:00 +4°C° 0.9 mm 3 m/s 719 mmHg 90%
    17:00 +4°C° 2.5 mm 3 m/s 719 mmHg 91%
    18:00 +3°C° 2.5 mm 3 m/s 720 mmHg 92%
    19:00 +3°C° 2.5 mm 3 m/s 720 mmHg 93%
    20:00 +3°C° 0.4 mm 3 m/s 721 mmHg 92%
    21:00 +2°C° 0.4 mm 3 m/s 721 mmHg 91%
    22:00 +2°C° 0.4 mm 3 m/s 722 mmHg 91%
    23:00 +2°C° 0 mm 3 m/s 722 mmHg 91%
    Voir plus